Location: Newark
(42.9277°N, 71.8621°W)
Time: 06:57:10
(UTC+00:00)

Vanguard 2 Rocket - All Passes

Search period start: 26 May 2020 00:00
Search period end: 05 June 2020 00:00
Orbit: 555 x 3325 km, 32.9° (Epoch: 24 May)

Date Brightness Start Highest point End Pass type
(mag) Time Alt. Az. Time Alt. Az. Time Alt. Az.
26 May - 01:38:49 10° W 01:54:42 48° SSW 02:13:18 10° SE visible
26 May - 03:56:40 10° W 04:10:36 25° SW 04:24:23 10° S visible
26 May - 18:08:02 10° SE 18:10:11 11° SE 18:12:35 10° ESE daylight
26 May - 20:13:28 10° SW 20:21:59 38° SSE 20:35:45 10° E daylight
26 May - 22:24:52 10° WSW 22:36:34 57° S 22:54:55 10° ESE daylight
27 May - 00:38:24 10° W 00:53:05 53° SSW 01:12:17 10° SE visible
27 May - 02:54:26 10° W 03:09:30 33° SW 03:25:36 10° SSE visible
27 May - 19:15:28 10° SSW 19:22:21 28° SE 19:32:51 10° E daylight
27 May - 21:25:45 10° WSW 21:35:46 53° SSE 21:52:23 10° E daylight
27 May - 23:38:26 10° W 23:51:35 56° S 00:10:39 10° ESE daylight
28 May - 01:53:11 10° W 02:08:09 39° SSW 02:25:47 10° SSE visible
28 May - 04:13:13 10° WSW 04:23:36 17° SW 04:34:04 10° SSW visible
28 May - 18:18:24 10° S 18:23:10 17° SE 18:29:32 10° E daylight
28 May - 20:27:00 10° SW 20:35:29 45° SSE 20:49:45 10° E daylight
28 May - 22:38:53 10° WSW 22:50:22 57° S 23:08:32 10° ESE daylight
29 May - 00:52:39 10° W 01:06:43 45° SSW 01:25:09 10° SE visible
29 May - 03:09:45 10° W 03:22:42 24° SW 03:36:38 10° S visible
29 May - 19:28:39 10° SSW 19:35:42 35° SSE 19:47:09 10° E daylight
29 May - 21:39:40 10° WSW 21:49:34 55° S 22:06:08 10° ESE daylight
29 May - 23:52:36 10° W 00:05:21 50° SSW 00:23:48 10° SE daylight
30 May - 02:07:57 10° W 02:21:34 31° SSW 02:37:33 10° SSE visible
30 May - 18:30:51 10° SSW 18:36:22 24° SE 18:44:31 10° E daylight
30 May - 20:40:47 10° WSW 20:49:12 49° SSE 21:03:38 10° E daylight
30 May - 22:52:59 10° W 23:04:14 53° S 23:21:57 10° ESE daylight
31 May - 01:07:07 10° W 01:20:19 37° SSW 01:37:28 10° SSE visible
31 May - 03:26:38 10° WSW 03:35:55 16° SW 03:45:49 10° SSW visible
31 May - 17:34:11 10° SSE 17:37:24 14° SE 17:41:21 10° ESE daylight
31 May - 19:42:12 10° SW 19:49:17 41° SSE 20:01:12 10° E daylight
31 May - 21:53:43 10° WSW 22:03:26 53° S 22:19:44 10° ESE daylight
01 Jun - 00:06:56 10° W 00:19:07 42° SSW 00:36:33 10° SE daylight
01 Jun - 02:23:29 10° W 02:34:58 22° SW 02:48:15 10° S visible
01 Jun - 18:44:01 10° SSW 18:49:48 30° SSE 18:58:55 10° E daylight
01 Jun - 20:54:45 10° WSW 21:03:02 51° S 21:17:22 10° ESE daylight
01 Jun - 23:07:13 10° W 23:18:06 46° SSW 23:35:01 10° SE daylight
02 Jun - 01:22:01 10° W 01:33:55 28° SSW 01:48:59 10° SSE visible
02 Jun - 17:46:24 10° S 17:50:42 20° SE 17:56:39 10° ESE daylight
02 Jun - 19:56:03 10° WSW 20:03:03 45° SSE 20:15:06 10° E daylight
02 Jun - 22:07:52 10° WSW 22:17:22 49° S 22:33:05 10° ESE daylight
03 Jun - 00:21:31 10° W 00:32:52 34° SSW 00:48:41 10° SSE daylight
03 Jun - 02:40:57 10° WSW 02:48:25 14° SW 02:56:40 10° SSW visible
03 Jun - 16:50:47 10° SSE 16:51:51 10° SE 16:52:59 10° SE daylight
03 Jun - 18:57:37 10° SW 19:03:27 36° SSE 19:13:02 10° E daylight
03 Jun - 21:08:50 10° WSW 21:16:58 49° S 21:30:58 10° ESE daylight
03 Jun - 23:21:37 10° W 23:31:58 38° SSW 23:47:39 10° SE daylight
04 Jun - 01:37:51 10° WSW 01:47:32 20° SW 01:59:15 10° S visible
04 Jun - 17:59:32 10° SSW 18:04:13 26° SSE 18:11:10 10° E daylight
04 Jun - 20:10:03 10° WSW 20:16:57 46° S 20:28:52 10° ESE daylight
04 Jun - 22:22:10 10° W 22:31:18 42° SSW 22:46:07 10° SE daylight
